www.pogodaiklimat.ru

Погода и климат >> Архив погоды >> Япония >> Момбецу


ПОГОДА в Момбецу

  • Прогноз погоды в Момбецу
  • Монитор погоды в Момбецу

АРХИВ ПОГОДЫ в Момбецу

Время (UTC), дата Ветер
(напр.,м/с)
 
Видим.   Явления Облачность Т
(С)
Тd
(С)
f
(%)
Тe
(С)
Тes
(С)
Комфортность P
(гПа)
Po
(гПа)
Тmin
(С)
Tmax
(С)
R
(мм)
R24
(мм)
S
(см)
22 13.06 В 2 20 км н/о +14.9 +12.6 86 +15 +15 1010.4 1008.3
23 13.06 В 2 20 км н/о +14.6 +12.3 86 +14 +14 1010.2 1008.1
00 14.06 В 2 17 км н/о +14.7 +12.2 85 +14 +14 1010.2 1008.1 +10.7
01 14.06 В 2 20 км н/о +16.8 +13.0 78 +17 +17 1009.7 1007.6
02 14.06 ЮВ 4 20 км н/о +17.1 +12.0 72 +17 +17 1009.3 1007.2
03 14.06 В 2 20 км н/о +18.5 +13.4 72 +20 +20 1008.8 1006.7
04 14.06 В 2 20 км н/о +18.4 +12.8 70 +20 +20 1008.3 1006.2
05 14.06 В 2 20 км н/о +19.1 +12.8 67 +21 +21 комфорт 1007.7 1005.6
06 14.06 СВ 2 20 км н/о +19.5 +12.0 62 +22 +22 комфорт 1007.5 1005.4
07 14.06 В 2 20 км н/о +20.6 +12.1 58 +23 +23 комфорт 1007.4 1005.4
08 14.06 СЗ 3 20 км н/о +18.1 +12.8 71 +18 +18 1007.9 1005.8
09 14.06 СЗ 4 20 км н/о +17.1 +12.4 74 +17 +17 1008.4 1006.3
10 14.06 СЗ 4 20 км н/о +18.2 +11.5 65 +18 +18 1008.7 1006.6
11 14.06 СЗ 2 20 км н/о +17.4 +11.0 66 +18 +18 1009.6 1007.5
12 14.06 СЗ 2 20 км н/о +17.9 +10.3 61 +19 +19 1010.2 1008.1 +21.3
13 14.06 ЮВ 2 20 км н/о +15.7 +11.5 76 +16 +16 1010.4 1008.3
14 14.06 ЮЗ 2 20 км н/о +15.4 +11.0 75 +16 +16 1010.3 1008.2
15 14.06 Ю 2 20 км н/о +16.0 +11.2 73 +16 +16 1010.3 1008.2
16 14.06 Ю 1 20 км н/о +14.7 +10.7 77 +15 +15 1009.7 1007.6
17 14.06 ЮЗ 1 20 км н/о +14.4 +11.0 80 +15 +15 1009.7 1007.6
18 14.06 ЮЗ 2 20 км н/о +14.2 +11.0 81 +14 +14 1009.8 1007.7
19 14.06 ЮЗ 2 19 км н/о +13.6 +10.6 82 +13 +13 1009.9 1007.8
20 14.06 Ю 3 20 км н/о +14.2 +10.2 77 +13 +13 1010.2 1008.1
21 14.06 ЮЗ 2 20 км н/о +14.7 +10.1 74 +14 +14 1010.2 1008.1
22 14.06 В 1 20 км н/о +15.1 +12.2 83 +16 +16 1010.2 1008.1
23 14.06 СВ 2 20 км н/о +16.4 +12.0 75 +17 +17 1010.1 1008.0
00 15.06 В 2 20 км н/о +16.8 +11.7 72 +17 +17 1009.8 1007.7 +13.5
01 15.06 СВ 3 20 км н/о +17.6 +12.7 73 +18 +18 1009.2 1007.1
02 15.06 СВ 4 20 км н/о +19.3 +12.3 64 +21 +21 комфорт 1008.5 1006.4
03 15.06 СЗ 4 20 км н/о +21.9 +12.5 55 +24 +24 комфорт 1007.9 1005.9
04 15.06 СЗ 3 20 км н/о +23.4 +12.4 50 +26 +26 жарко 1007.6 1005.6
05 15.06 С 3 20 км н/о +23.6 +13.8 54 +26 +26 жарко 1007.4 1005.4
06 15.06 СЗ 4 20 км н/о +21.6 +12.7 57 +24 +24 комфорт 1007.2 1005.2
07 15.06 СЗ 4 20 км н/о +18.5 +13.2 71 +19 +19 1007.8 1005.7
08 15.06 СЗ 4 20 км н/о +18.4 +13.7 74 +19 +19 1008.1 1006.0
09 15.06 СЗ 4 16 км слаб. дождь н/о +15.2 +13.4 89 +14 +14 1008.5 1006.4
10 15.06 СЗ 2 11 км в посл. час дождь н/о +14.1 +13.2 94 +13 +13 1009.2 1007.1
11 15.06 СЗ 3 10 км слаб. дождь н/о +12.9 +12.3 96 +12 +12 1009.8 1007.7
12 15.06 СЗ 4 18 км слаб. дождь н/о +12.6 +12.0 96 +11 +11 1009.9 1007.8 +24.6 0.0
13 15.06 СЗ 2 10 км слаб. дождь н/о +12.5 +12.0 97 +11 +11 1009.7 1007.6
14 15.06 СЗ 2 9000 м слаб. дождь н/о +12.4 +12.1 98 +11 +11 1009.8 1007.7
15 15.06 С 3 8000 м слаб. дождь н/о +12.2 +12.1 99 +11 +11 1008.8 1006.7
16 15.06 С 2 7000 м слаб. дождь н/о +12.2 +12.1 99 +11 +11 1008.1 1006.0
17 15.06 С 2 7000 м слаб. дождь н/о +12.2 +12.1 99 +11 +11 1007.4 1005.3
18 15.06 СЗ 2 7000 м слаб. дождь н/о +12.2 +12.1 99 +11 +11 1006.2 1004.1 0.5
19 15.06 З 1 8000 м в посл. час дождь н/о +12.3 +12.2 99 +13 +13 1005.7 1003.6
20 15.06 ЮВ 1 11 км слаб. дождь н/о +12.7 +12.4 98 +13 +13 1005.2 1003.1
21 15.06 В 3 10 км слаб. дождь н/о +13.5 +13.2 98 +12 +12 1004.6 1002.5
22 15.06 В 4 8000 м слаб. дождь н/о +12.0 +11.9 99 +10 +10 1003.9 1001.8
23 15.06 В 3 7000 м слаб. дождь н/о +12.0 +11.7 98 +10 +10 1003.3 1001.2
00 16.06 В 5 4100 м дождь н/о +11.5 +11.4 99 +9 +9 1002.3 1000.2 +11.5 11
01 16.06 В 7 9000 м слаб. дождь н/о +11.2 +11.1 99 +8 +8 1000.6 998.5
02 16.06 В 6 11 км слаб. дождь н/о +11.5 +11.2 98 +8 +8 999.9 997.8
03 16.06 СВ 5 8000 м слаб. дождь н/о +11.3 +11.0 98 +8 +8 998.8 996.7
04 16.06 СВ 6 13 км в посл. час дождь н/о +11.0 +10.4 96 +8 +8 997.6 995.5
05 16.06 СВ 7 11 км н/о +10.9 +10.3 96 +7 +7 996.8 994.7
06 16.06 СВ 8 4700 м дымка {дождь} н/о +10.2 +9.9 98 +6 +6 995.9 993.8 4
07 16.06 СВ 8 5000 м дымка н/о +9.9 +9.6 98 +6 +6 995.5 993.4
08 16.06 СВ 7 3000 м слаб. дождь н/о +9.7 +9.6 99 +6 +6 995.6 993.5
09 16.06 С 6 5000 м слаб. дождь н/о +9.6 +9.5 99 +6 +6 994.9 992.8
10 16.06 С 5 6000 м слаб. дождь н/о +9.2 +8.9 98 +6 +6 994.4 992.3
11 16.06 С 5 5000 м дождь н/о +9.2 +8.9 98 +6 +6 994.6 992.5
12 16.06 С 5 4700 м слаб. дождь н/о +9.1 +8.8 98 +6 +6 994.0 991.9 +11.7 18
13 16.06 С 6 4900 м слаб. дождь н/о +8.8 +8.4 97 +5 +5 993.9 991.8
14 16.06 СЗ 7 3200 м слаб. дождь н/о +8.8 +8.4 97 +4 +4 993.6 991.5
15 16.06 СЗ 8 3900 м слаб. дождь н/о +8.7 +8.3 97 +4 +4 993.3 991.2
16 16.06 СЗ 8 3500 м слаб. дождь н/о +8.4 +8.0 97 +4 +4 993.4 991.3
17 16.06 СЗ 9 3400 м дождь н/о +8.4 +8.0 97 +3 +3 994.3 992.2
18 16.06 СЗ 7 3100 м слаб. дождь н/о +8.0 +7.6 97 +3 +3 995.1 993.0 11
19 16.06 СЗ 7 4700 м слаб. дождь н/о +7.8 +7.2 96 +3 +3 995.9 993.8
20 16.06 СЗ 8 3200 м слаб. дождь н/о +7.6 +7.0 96 +3 +3 996.9 994.8
21 16.06 СЗ 6 2900 м слаб. дождь н/о +7.8 +7.2 96 +3 +3 997.9 995.8
22 16.06 СЗ 7 8000 м слаб. дождь н/о +8.5 +7.4 93 +4 +4 998.5 996.4
23 16.06 СЗ 8 7000 м слаб. дождь н/о +8.5 +7.1 91 +4 +4 999.7 997.6
00 17.06 СЗ 7 3500 м слаб. дождь н/о +8.6 +7.4 92 +4 +4 1000.2 998.1 +7.5 13
01 17.06 СЗ 8 9000 м слаб. дождь н/о +9.2 +7.5 89 +5 +5 1000.5 998.4
02 17.06 СЗ 6 5000 м слаб. дождь н/о +9.8 +8.9 94 +6 +6 1001.4 999.3
03 17.06 СЗ 5 5000 м слаб. дождь н/о +10.2 +8.6 90 +7 +7 1001.7 999.6
04 17.06 СЗ 5 20 км слаб. дождь н/о +10.7 +7.6 81 +8 +8 1002.5 1000.4
05 17.06 СЗ 5 20 км в посл. час дождь н/о +11.4 +7.1 75 +9 +9 1003.1 1001.0
06 17.06 СЗ 5 12 км {дождь} н/о +10.4 +8.0 85 +7 +7 1004.1 1002.0 0.5
07 17.06 СЗ 4 13 км н/о +10.5 +7.7 83 +8 +8 1004.5 1002.4
08 17.06 СЗ 4 12 км н/о +10.1 +7.5 84 +8 +8 1005.1 1003.0
09 17.06 СЗ 3 9000 м дымка н/о +8.9 +7.2 89 +7 +7 1005.6 1003.5
10 17.06 СЗ 2 10 км н/о +9.3 +7.6 89 +8 +8 1005.7 1003.6
11 17.06 Ю 2 9000 м дымка н/о +8.5 +7.6 94 +7 +7 1006.0 1003.9
12 17.06 З 1 9000 м дымка н/о +7.8 +7.2 96 +7 +7 1006.7 1004.6 +11.5 0.5
13 17.06 З 3 20 км н/о +9.8 +6.2 78 +8 +8 1007.1 1005.0
14 17.06 З 3 20 км н/о +9.8 +5.4 74 +8 +8 1007.8 1005.7
15 17.06 З 4 20 км н/о +9.7 +5.3 74 +7 +7 1008.5 1006.4
16 17.06 З 5 20 км н/о +10.3 +5.3 71 +7 +7 1008.7 1006.6
17 17.06 З 5 20 км н/о +10.6 +5.4 70 +8 +8 1008.9 1006.8
18 17.06 ЮЗ 5 20 км н/о +10.7 +5.5 70 +8 +8 1009.2 1007.1
19 17.06 ЮЗ 5 20 км н/о +10.8 +5.4 69 +8 +8 1009.1 1007.0
20 17.06 ЮЗ 4 20 км н/о +10.4 +5.8 73 +8 +8 1009.2 1007.1
21 17.06 З 3 20 км н/о +11.9 +4.9 62 +11 +11 1009.4 1007.3
22 17.06 ЮЗ 2 20 км н/о +11.7 +6.4 70 +11 +11 1009.4 1007.3
23 17.06 Ю 2 20 км н/о +12.3 +5.9 65 +12 +12 1008.9 1006.8
00 18.06 ЮВ 2 20 км н/о +14.0 +7.5 65 +14 +14 1008.2 1006.1 +7.6
01 18.06 В 3 20 км н/о +14.8 +9.2 69 +14 +14 1008.4 1006.3
02 18.06 В 2 20 км н/о +15.9 +11.1 73 +16 +16 1008.3 1006.2
03 18.06 ЮВ 3 20 км н/о +14.6 +9.2 70 +14 +14 1008.1 1006.0
04 18.06 ЮВ 2 20 км н/о +15.1 +9.0 67 +15 +15 1007.9 1005.8
05 18.06 В 2 20 км н/о +16.0 +11.0 72 +16 +16 1007.8 1005.7
06 18.06 В 2 20 км н/о +15.5 +11.1 75 +15 +15 1007.9 1005.8
07 18.06 В 2 20 км н/о +15.2 +10.4 73 +15 +15 1007.8 1005.7
08 18.06 ЮВ 3 20 км н/о +15.1 +10.9 76 +15 +15 1007.8 1005.7
09 18.06 В 2 20 км н/о +15.0 +10.6 75 +15 +15 1008.2 1006.1
10 18.06 Ю 2 20 км н/о +15.2 +9.6 69 +15 +15 1008.2 1006.1
11 18.06 З 2 20 км слаб. дождь н/о +14.4 +10.0 75 +14 +14 1008.5 1006.4
12 18.06 В 2 20 км в посл. час дождь н/о +13.2 +10.0 81 +13 +13 1008.9 1006.8 +16.7 0.0
13 18.06 СЗ 1 20 км н/о +12.5 +10.1 85 +13 +13 1008.8 1006.7
14 18.06 ЮВ 1 20 км н/о +12.4 +10.5 88 +12 +12 1008.5 1006.4
15 18.06 ЮЗ 1 20 км н/о +13.2 +11.1 87 +13 +13 1008.5 1006.4
16 18.06 Ю 1 20 км н/о +11.4 +9.8 90 +11 +11 1008.2 1006.1
17 18.06 З 1 20 км н/о +12.0 +10.4 90 +12 +12 1008.4 1006.3
18 18.06 В 1 20 км н/о +12.0 +10.6 91 +13 +13 1008.5 1006.4
19 18.06 Ю 3 20 км н/о +13.1 +10.5 84 +12 +12 1008.5 1006.4
20 18.06 Ю 2 20 км н/о +13.8 +10.6 81 +14 +14 1008.8 1006.7
21 18.06 СВ 1 20 км н/о +14.5 +11.5 82 +16 +16 1008.7 1006.6
22 18.06 Ю 2 20 км н/о +16.0 +11.4 74 +16 +16 1008.6 1006.5
23 18.06 В 2 20 км н/о +15.6 +11.8 78 +16 +16 1008.5 1006.4
00 19.06 ЮВ 3 20 км н/о +17.1 +12.4 74 +17 +17 1008.2 1006.1 +11.1
01 19.06 В 2 20 км н/о +17.5 +12.4 72 +18 +18 1008.2 1006.1
02 19.06 В 3 20 км н/о +19.1 +11.9 63 +20 +20 1007.8 1005.7
03 19.06 В 3 20 км н/о +18.5 +11.1 62 +19 +19 1007.4 1005.3
04 19.06 В 2 20 км н/о +17.8 +10.2 61 +19 +19 1007.2 1005.1
05 19.06 ЮВ 3 20 км н/о +17.5 +10.4 63 +18 +18 1007.1 1005.0
06 19.06 ЮВ 2 20 км н/о +17.6 +10.0 61 +18 +18 1007.3 1005.2
07 19.06 ЮВ 2 20 км н/о +17.1 +10.0 63 +17 +17 1007.1 1005.0
08 19.06 В 2 20 км н/о +18.4 +9.2 55 +19 +19 1007.2 1005.1
09 19.06 СВ 2 20 км н/о +16.9 +10.1 64 +17 +17 1007.4 1005.3
10 19.06 С 1 20 км н/о +16.3 +10.0 66 +17 +17 1007.7 1005.6
11 19.06 СЗ 1 20 км н/о +15.3 +10.3 72 +17 +17 1008.2 1006.1
12 19.06 З 2 20 км н/о +14.9 +10.9 77 +15 +15 1008.5 1006.4 +19.9
13 19.06 Ю 2 20 км н/о +13.7 +10.9 83 +13 +13 1008.6 1006.5
14 19.06 ЮЗ 1 20 км н/о +13.5 +10.9 84 +14 +14 1008.5 1006.4
15 19.06 ЮЗ 3 20 км н/о +13.1 +11.2 88 +12 +12 1008.5 1006.4
16 19.06 ЮЗ 2 20 км н/о +12.5 +11.2 92 +12 +12 1008.3 1006.2
17 19.06 ЮЗ 1 20 км н/о +11.8 +9.7 87 +12 +12 1008.3 1006.2
18 19.06 ЮЗ 3 20 км н/о +12.1 +11.0 93 +11 +11 1008.3 1006.2
19 19.06 З 1 20 км н/о +11.4 +10.2 92 +11 +11 1008.5 1006.4
20 19.06 ЮЗ 3 20 км н/о +12.4 +10.8 90 +11 +11 1008.7 1006.6
21 19.06 ЮЗ 3 20 км н/о +15.1 +11.3 78 +15 +15 1008.6 1006.5
22 19.06 СВ 2 20 км н/о +15.0 +12.3 84 +15 +15 1008.5 1006.4
23 19.06 СВ 1 20 км н/о +17.1 +13.8 81 +18 +18 1008.5 1006.4
00 20.06 СВ 3 20 км н/о +17.3 +11.6 69 +17 +17 1008.6 1006.5 +10.8
01 20.06 С 2 20 км н/о +17.3 +11.8 70 +18 +18 1008.8 1006.7
02 20.06 СВ 2 20 км н/о +15.9 +11.7 76 +16 +16 1008.8 1006.7
03 20.06 В 2 20 км н/о +14.9 +11.5 80 +15 +15 1008.8 1006.7
04 20.06 В 2 20 км н/о +15.8 +11.2 74 +16 +16 1008.6 1006.5
05 20.06 В 2 20 км н/о +16.8 +11.5 71 +17 +17 1008.8 1006.7
06 20.06 В 3 20 км н/о +15.4 +12.0 80 +15 +15 1008.8 1006.7
07 20.06 В 2 20 км н/о +14.9 +12.0 83 +15 +15 1008.5 1006.4
08 20.06 С 3 20 км н/о +15.2 +12.2 82 +15 +15 1008.8 1006.7
09 20.06 С 2 20 км н/о +14.1 +11.8 86 +14 +14 1009.2 1007.1
10 20.06 СВ 1 20 км н/о +13.8 +12.0 89 +15 +15 1009.7 1007.6
11 20.06 В 1 20 км н/о +13.7 +12.1 90 +14 +14 1010.1 1008.0
12 20.06 СВ 2 20 км н/о +13.8 +12.4 91 +13 +13 1010.8 1008.7 +18.5
13 20.06 СВ 2 20 км н/о +13.3 +12.2 93 +13 +13 1010.8 1008.7
14 20.06 СВ 1 20 км н/о +13.2 +11.9 92 +13 +13 1010.8 1008.7
15 20.06 В 2 19 км слаб. дождь н/о +12.7 +11.9 95 +12 +12 1010.6 1008.5
16 20.06 штиль 0 19 км в посл. час дождь н/о +13.1 +12.2 94 +13 +13 1010.6 1008.5
17 20.06 З 1 20 км н/о +12.7 +11.8 94 +13 +13 1010.5 1008.4
18 20.06 В 1 14 км {дождь} н/о +12.5 +11.9 96 +13 +13 1010.8 1008.7 0.0
19 20.06 Ю 1 12 км н/о +12.6 +12.0 96 +12 +12 1010.8 1008.7
20 20.06 С 2 13 км н/о +13.0 +12.2 95 +12 +12 1011.0 1008.9
21 20.06 С 2 13 км н/о +12.8 +12.0 95 +12 +12 1011.5 1009.4

 

Местоположение метеостанции Момбецу (Япония): широта 44.35 долгота 143.35 высота над уровнем моря 16 м.

В архиве по умолчанию представлена погода в Момбецу за последнюю неделю. Архивные данные за месяц целиком и за предыдущие месяцы, начиная с января 2011 года, Вы можете получить, выбрав интересующий диапазон дат из раскрывающегося списка и нажав кнопку "Ввод!".


*Определитесь, кто Вы:
робот инопланетянин человек

Внимание! Время в таблицах - всемирное. Для получения местного времени необходимо прибавить поправку, которая равна 9 ч.

Смотрите также архив погоды в соседних городах и на ближайших метеорологических станциях:

Погода в Омурайсу (Япония) (40 км)
Погода в Абасири (Япония) (83 км)
Погода в Китами Сачи (Япония) (89 км)
Погода в Асахикаве (Япония) (102 км)
Погода в Хаборо (Япония) (131 км)
Погода в Румои (Япония) (144 км)
Погода в Обихиро (Япония) (159 км)
Погода в Кусиро (Япония) (173 км)
Погода в Вакканае (Япония) (177 км)
Погода в Ивамидзаве (Япония) (178 км)

Пояснения к столбцам:

Ветер - указаны скорость ветра в м/с - средняя за 10 мин, порывы в срок и между сроками (в фигурных скобках) и направление, откуда дует ветер: С - северный, СВ - северо-восточный, В - восточный, ЮВ - юго-восточный, Ю - южный, ЮЗ - юго-западный, З - западный, СЗ - северо-западный.
Видимость - горизонтальная дальность видимости в метрах или километрах. При видимости от 1 до 10 км при отсутствии осадков обычно наблюдается дымка, при ухудшении видимости до 1 км и менее - туман. В сухую погоду видимость может ухудшаться дымом, пылью или мглою.
Явления - указаны атмосферные явления, наблюдавшиеся в срок или в последний час перед сроком; фигурными скобками обозначены явления, наблюдавшиеся между сроками (за 1-3 часа до срока); квадратными скобками обозначены град или гололедные отложения с указанием их диаметра в мм.
Облачность - указаны через наклонную черту общая и нижняя облачность в баллах и высота нижней границы облаков в метрах; квадратными скобками обозначены формы облаков: Ci - перистые, Cs - перисто-слоистые, Cc - перисто-кучевые, Ac - высококучевые, As - высокослоистые, Sc - слоисто-кучевые, Ns - слоисто-дождевые, Cu - кучевые, Cb - кучево-дождевые. Подробнее классификацию облаков см. в Атласе облаков (PDF).
T - Температура воздуха - температура, измеренная на высоте 2 м над землей.
Td - Температура точки росы - температура, при понижении до которой содержащийся в воздухе водяной пар достигнет насыщения.
f - Относительная влажность воздуха - влажноcть воздуха, измеренная на высоте 2 м над землей.
Te - Эффективная температура - температура, которую ощущает одетый по сезону человек в тени. Характеристика душности погоды. При расчете учитывается влияние влажности воздуха и скорости ветра на теплоощущения человека.
Tes - Эффективная температура на солнце - температура, которую ощущает человек, с поправкой на солнечный нагрев. Характеристика знойности погоды. Зависит от высоты солнца над горизонтом, облачности и скорости ветра. Ночью, в пасмурную погоду, а также при ветре 12 м/с и более поправка равна нулю.
P - Атмосферное давление - приведенное к уровню моря атмосферное давление.
Po - Атмосферное давление - измеренное на уровне метеостанции атмосферное давление.
Tmin - Минимальная температура - минимум температуры воздуха на высоте 2 м над землей.
Tmax - Максимальная температура - максимум температуры воздуха на высоте 2 м над землей.
R - Количество осадков - Количество выпавших осадков за период времени, мм. При наведении курсора мыши на число - период времени, за который выпало указанное количество осадков.
R24 - Количество осадков - Количество выпавших осадков за 24 часа, мм.
S - Снежный покров - Высота снежного покрова, см. При наведении курсора мыши на число - состояние снежного покрова и степень покрытия местности в баллах.